Shannon, Ireland

1:00 AM GMT on December 11, 2017 (GMT +0000)
Shannon

Weather History for EINN - February, 2012

Change the Weather History Date:

Thursday, February 9, 2012

  Actual Average Record
Temperature  
Mean Temperature 50 °F -  
Max Temperature 54 °F 48 °F 57 °F (2008)
Min Temperature 45 °F 37 °F 28 °F (1999)
Degree Days  
Heating Degree Days 16    
Moisture  
Dew Point 47 °F    
Average Humidity 93    
Maximum Humidity 100    
Minimum Humidity 87    
Precipitation  
Precipitation 0.02 in 0.09 in - ()
Sea Level Pressure  
Sea Level Pressure 30.56 in    
Wind  
Wind Speed 8 mph ()    
Max Wind Speed 13 mph    
Max Gust Speed -    
Visibility 6.4 miles    
Events Fog , Rain    
Averages and records for this station are not official NWS values.
T = Trace of Precipitation, MM = Missing Value Source: Averaged Metar Reports

Daily Weather History Graph

Daily Weather History Graph

Search for Another Location

Airport or City:

Trip Planner

Search our weather history database for the weather conditions in past years. The results will help you decide how hot, cold, wet, or windy it might be!

Date:

Astronomy

Feb. 09, 2012 Rise Set
Actual Time 8:05 AM GMT 5:35 PM GMT
Civil Twilight 7:28 AM GMT 6:11 PM GMT
Nautical Twilight 6:48 AM GMT 6:52 PM GMT
Astronomical Twilight 6:08 AM GMT 7:32 PM GMT
Moon 8:15 PM GMT (2/9) 8:12 AM GMT (2/9)
Length of Visible Light 10h 42m
Length of Day
9h 30m
Full, 97% of the Moon is Illuminated
Feb 9
Full
Feb 14
Last Quarter
Feb 21
New
Mar 1
First Quarter
Mar 8
Full

Hourly Weather History & Observations

Time (GMT) Temp. Windchill Dew Point Humidity Pressure Visibility Wind Dir Wind Speed Gust Speed Precip Events Conditions
12:00 AM 46 °F - 44 °F 90% 30.59 in 10 mi SE 11.2 mph - -   Partly Cloudy
12:00 AM 46.4 °F 41.1 °F 44.6 °F 93% 30.57 in 6.2 mi SE 11.5 mph - N/A   Mostly Cloudy
12:30 AM 46.4 °F 41.1 °F 44.6 °F 93% 30.57 in 6.2 mi SE 11.5 mph - N/A   Mostly Cloudy
1:00 AM 46.4 °F 41.1 °F 44.6 °F 93% 30.57 in 6.2 mi SE 11.5 mph - N/A   Mostly Cloudy
1:30 AM 46.4 °F 40.7 °F 44.6 °F 93% 30.57 in 6.2 mi SE 12.7 mph - N/A   Mostly Cloudy
2:00 AM 46.4 °F 40.7 °F 44.6 °F 93% 30.57 in 6.2 mi SE 12.7 mph - N/A   Mostly Cloudy
2:30 AM 46.4 °F 40.7 °F 44.6 °F 93% 30.57 in 6.2 mi SE 12.7 mph - N/A   Mostly Cloudy
3:00 AM 48.2 °F - 44.6 °F 87% 30.57 in 6.2 mi SE 11.5 mph - N/A   Mostly Cloudy
3:30 AM 48.2 °F - 44.6 °F 87% 30.57 in 6.2 mi SSE 11.5 mph - N/A   Mostly Cloudy
4:00 AM 48.2 °F - 44.6 °F 87% 30.57 in 6.2 mi SSE 11.5 mph - N/A   Overcast
4:30 AM 48.2 °F - 44.6 °F 87% 30.57 in 6.2 mi SSE 10.4 mph - N/A   Mostly Cloudy
5:00 AM 48.2 °F - 44.6 °F 87% 30.57 in 6.2 mi SSE 10.4 mph - N/A   Mostly Cloudy
5:30 AM 48.2 °F - 44.6 °F 87% 30.57 in 6.2 mi SSE 9.2 mph - N/A   Mostly Cloudy
6:00 AM 47 °F - 45 °F 91% 30.59 in 4 mi SE 8.9 mph - - Rain Light Rain
6:00 AM 46.4 °F 41.9 °F 44.6 °F 93% 30.57 in 5.0 mi SE 9.2 mph - N/A Rain Light Rain
6:30 AM 46.4 °F 42.4 °F 44.6 °F 93% 30.57 in 6.2 mi SE 8.1 mph - N/A Rain Light Rain
7:00 AM 46.4 °F 43.5 °F 46.4 °F 100% 30.57 in 6.2 mi SE 5.8 mph - N/A   Mostly Cloudy
7:30 AM 46.4 °F 41.9 °F 46.4 °F 100% 30.57 in 6.2 mi SE 9.2 mph - N/A   Mostly Cloudy
8:00 AM 46.4 °F 42.9 °F 46.4 °F 100% 30.57 in 6.2 mi SE 6.9 mph - N/A   Mostly Cloudy
8:30 AM 46.4 °F 42.4 °F 46.4 °F 100% 30.57 in 6.2 mi ESE 8.1 mph - N/A   Mostly Cloudy
9:00 AM 46.4 °F 42.4 °F 46.4 °F 100% 30.57 in - ESE 8.1 mph - N/A Rain Light Rain
9:30 AM 48.2 °F - 46.4 °F 93% 30.60 in 6.2 mi ESE 8.1 mph - N/A Rain Light Rain
10:00 AM 48.2 °F - 46.4 °F 93% 30.60 in 6.2 mi ESE 8.1 mph - N/A Rain Light Rain
10:30 AM 48.2 °F - 48.2 °F 100% 30.60 in 6.2 mi ESE 8.1 mph - N/A   Light Drizzle
11:00 AM 50.0 °F - 48.2 °F 94% 30.57 in 6.2 mi ESE 8.1 mph - N/A   Light Drizzle
11:30 AM 50.0 °F - 50.0 °F 100% 30.57 in 6.2 mi SE 6.9 mph - N/A   Mostly Cloudy
12:00 PM 51 °F - 50 °F 93% 30.59 in 16 mi SE 6.7 mph - - Rain Light Rain
12:00 PM 51.8 °F - 50.0 °F 94% 30.57 in 6.2 mi SE 6.9 mph - N/A   Mostly Cloudy
12:30 PM 51.8 °F - 50.0 °F 94% 30.57 in 6.2 mi SSE 8.1 mph - N/A   Mostly Cloudy
1:00 PM 53.6 °F - 50.0 °F 88% 30.57 in 6.2 mi SSE 6.9 mph - N/A   Mostly Cloudy
1:30 PM 53.6 °F - 50.0 °F 88% 30.57 in 6.2 mi SSE 5.8 mph - N/A   Mostly Cloudy
2:00 PM 53.6 °F - 50.0 °F 88% 30.57 in 6.2 mi South 5.8 mph - N/A   Mostly Cloudy
2:30 PM 53.6 °F - 50.0 °F 88% 30.57 in 6.2 mi SSW 2.3 mph - N/A   Mostly Cloudy
3:00 PM 53.6 °F - 50.0 °F 88% 30.54 in 6.2 mi SW 1.2 mph - N/A   Mostly Cloudy
3:30 PM 53.6 °F - 50.0 °F 88% 30.54 in 6.2 mi SSW 1.2 mph - N/A   Overcast
4:00 PM 53.6 °F - 50.0 °F 88% 30.54 in 6.2 mi SSW 8.1 mph - N/A   Mostly Cloudy
4:30 PM 53.6 °F - 50.0 °F 88% 30.54 in 6.2 mi SSW 6.9 mph - N/A   Mostly Cloudy
5:00 PM 53.6 °F - 50.0 °F 88% 30.54 in 6.2 mi SW 4.6 mph - N/A   Mostly Cloudy
5:30 PM 53.6 °F - 50.0 °F 88% 30.54 in 6.2 mi SW 4.6 mph - N/A   Mostly Cloudy
6:00 PM 52 °F - 49 °F 88% 30.56 in 19 mi SW 6.7 mph - -   Overcast
6:00 PM 51.8 °F - 50.0 °F 94% 30.54 in 6.2 mi SW 5.8 mph - N/A   Mostly Cloudy
6:30 PM 51.8 °F - 50.0 °F 94% 30.54 in 6.2 mi SW 4.6 mph - N/A   Mostly Cloudy
7:00 PM 51.8 °F - 50.0 °F 94% 30.54 in 6.2 mi Calm Calm - N/A   Mostly Cloudy
7:30 PM 50.0 °F - 48.2 °F 94% 30.54 in 6.2 mi Calm Calm - N/A   Overcast
8:00 PM 50.0 °F - 48.2 °F 94% 30.54 in 6.2 mi WSW 2.3 mph - N/A   Mostly Cloudy
8:30 PM 50.0 °F - 48.2 °F 94% 30.54 in 6.2 mi Calm Calm - N/A   Mostly Cloudy
9:00 PM 48.2 °F - 48.2 °F 100% 30.54 in 6.2 mi East 1.2 mph - N/A   Mostly Cloudy
9:30 PM 48.2 °F - 48.2 °F 100% 30.54 in 6.2 mi Calm Calm - N/A   Mostly Cloudy
10:00 PM 48.2 °F - 46.4 °F 93% 30.54 in 6.2 mi Calm Calm - N/A   Mostly Cloudy
10:30 PM 48.2 °F - 48.2 °F 100% 30.54 in 3.7 mi Calm Calm - N/A   Mostly Cloudy
11:00 PM 48.2 °F - 48.2 °F 100% 30.51 in 2.5 mi East 3.5 mph - N/A Fog Fog
11:30 PM 48.2 °F - 48.2 °F 100% 30.51 in 1.9 mi ESE 3.5 mph - N/A   Mostly Cloudy